Sand Point, AK

5:43 PM AKST on January 17, 2018 (GMT -0900)
Sand Point

Weather History for PASD - December, 2013

Change the Weather History Date:

Friday, December 20, 2013

  Actual Average Record
Temperature  
Mean Temperature 43 °F -  
Max Temperature 44 °F 33 °F 45 °F (1983)
Min Temperature 42 °F 27 °F 21 °F (1997)
Degree Days  
Heating Degree Days 22    
Moisture  
Dew Point 43 °F    
Average Humidity 97    
Maximum Humidity 100    
Minimum Humidity 93    
Precipitation  
Precipitation 0.00 in - - ()
Sea Level Pressure  
Sea Level Pressure 29.45 in    
Wind  
Wind Speed 17 mph (South)    
Max Wind Speed 30 mph    
Max Gust Speed 37 mph    
Visibility 6 miles    
Events      
Averages and records for this station are not official NWS values.
T = Trace of Precipitation, MM = Missing Value Source: NWS Daily Summary

Daily Weather History Graph

Daily Weather History Graph

Search for Another Location

Airport or City:

Trip Planner

Search our weather history database for the weather conditions in past years. The results will help you decide how hot, cold, wet, or windy it might be!

Date:

Astronomy

Dec. 20, 2013 Rise Set
Actual Time 10:06 AM AKST 5:13 PM AKST
Civil Twilight 9:20 AM AKST 5:59 PM AKST
Nautical Twilight 8:32 AM AKST 6:47 PM AKST
Astronomical Twilight 7:47 AM AKST 7:32 PM AKST
Moon 9:18 PM AKST (12/20) 11:36 AM AKST (12/20)
Length of Visible Light 8h 38m
Length of Day
7h 06m
Waning Gibbous, 89% of the Moon is Illuminated
Dec 20
Waning Gibbous
Dec 25
Last Quarter
Jan 1
New
Jan 7
First Quarter
Jan 15
Full

Hourly Weather History & Observations

Time (AKST) Temp. Windchill Dew Point Humidity Pressure Visibility Wind Dir Wind Speed Gust Speed Precip Events Conditions
12:16 AM 44.6 °F 37.8 °F 42.8 °F 93% 29.40 in 2.0 mi SSE 15.0 mph - N/A   Overcast
12:36 AM 44.6 °F 37.8 °F 42.8 °F 93% 29.40 in 2.0 mi SSE 15.0 mph - N/A   Overcast
12:56 AM 44.6 °F 37.8 °F 42.8 °F 93% 29.39 in 2.5 mi SSE 15.0 mph - N/A   Overcast
1:16 AM 44.6 °F 38.1 °F 42.8 °F 93% 29.39 in 2.0 mi SSE 13.8 mph 19.6 mph N/A   Overcast
1:36 AM 44.6 °F 37.2 °F 42.8 °F 93% 29.39 in 1.8 mi SSE 17.3 mph - N/A   Overcast
1:56 AM 44.6 °F 37.4 °F 44.6 °F 100% 29.38 in 2.0 mi SSE 16.1 mph - N/A   Overcast
2:16 AM 44.6 °F 37.4 °F 44.6 °F 100% 29.37 in 5.0 mi SSE 16.1 mph 24.2 mph N/A   Overcast
2:36 AM 44.6 °F 37.4 °F 44.6 °F 100% 29.37 in 2.5 mi SSE 16.1 mph - N/A   Overcast
2:56 AM 44.6 °F 37.8 °F 44.6 °F 100% 29.36 in 3.0 mi SSE 15.0 mph - N/A   Overcast
3:16 AM 44.6 °F 37.2 °F 44.6 °F 100% 29.36 in 5.0 mi SSE 17.3 mph - N/A   Overcast
3:36 AM 44.6 °F 37.8 °F 44.6 °F 100% 29.35 in 3.0 mi SSE 15.0 mph - N/A   Overcast
3:56 AM 44.6 °F 37.8 °F 44.6 °F 100% 29.35 in 2.0 mi SSE 15.0 mph - N/A   Overcast
4:16 AM 44.6 °F 37.8 °F 44.6 °F 100% 29.35 in 2.0 mi SSE 15.0 mph - N/A   Overcast
4:36 AM 44.6 °F 38.8 °F 44.6 °F 100% 29.35 in 2.0 mi SSE 11.5 mph - N/A   Overcast
4:56 AM 44.6 °F 37.8 °F 44.6 °F 100% 29.35 in 2.5 mi SSE 15.0 mph 19.6 mph N/A   Overcast
5:16 AM 44.6 °F 37.4 °F 44.6 °F 100% 29.36 in 2.5 mi South 16.1 mph - N/A   Overcast
5:36 AM 44.6 °F 38.4 °F 44.6 °F 100% 29.35 in 3.0 mi South 12.7 mph - N/A   Overcast
5:56 AM 44.6 °F 36.9 °F 44.6 °F 100% 29.35 in 10.0 mi South 18.4 mph 21.9 mph N/A   Overcast
6:16 AM 44.6 °F 36.6 °F 44.6 °F 100% 29.38 in 3.0 mi South 19.6 mph - N/A   Overcast
6:36 AM 44.6 °F 36.4 °F 42.8 °F 93% 29.38 in 2.5 mi South 20.7 mph - N/A   Overcast
6:56 AM 42.8 °F 34.3 °F 42.8 °F 100% 29.40 in 2.0 mi South 19.6 mph 27.6 mph N/A   Overcast
7:16 AM 44.6 °F 38.1 °F 44.6 °F 100% 29.41 in 5.0 mi South 13.8 mph 24.2 mph N/A   Overcast
7:36 AM 44.6 °F 36.9 °F 42.8 °F 93% 29.41 in 10.0 mi SSW 18.4 mph 21.9 mph N/A   Overcast
7:56 AM 44.6 °F 36.9 °F 44.6 °F 100% 29.43 in 5.0 mi SSW 18.4 mph 28.8 mph N/A   Overcast
8:16 AM 44.6 °F 36.4 °F 44.6 °F 100% 29.43 in 5.0 mi SW 20.7 mph 29.9 mph N/A   Overcast
8:36 AM 44.6 °F 37.2 °F 44.6 °F 100% 29.43 in 3.0 mi SSW 17.3 mph 24.2 mph N/A   Overcast
8:56 AM 42.8 °F 35.4 °F 42.8 °F 100% 29.43 in 5.0 mi SW 15.0 mph 26.5 mph N/A   Overcast
9:16 AM 42.8 °F 33.5 °F 42.8 °F 100% 29.44 in 5.0 mi SSW 23.0 mph 27.6 mph N/A   Overcast
9:36 AM 42.8 °F 34.8 °F 42.8 °F 100% 29.46 in 6.0 mi SSW 17.3 mph 27.6 mph N/A   Overcast
9:56 AM 42.8 °F 34.8 °F 41.0 °F 93% 29.47 in 10.0 mi SW 17.3 mph 29.9 mph N/A   Overcast
10:16 AM 42.8 °F 36.6 °F 41.0 °F 93% 29.48 in 10.0 mi SSW 11.5 mph - N/A   Overcast
10:36 AM 42.8 °F 35.4 °F 41.0 °F 93% 29.49 in 10.0 mi SSW 15.0 mph 23.0 mph N/A   Overcast
10:56 AM 42.8 °F 34.5 °F 41.0 °F 93% 29.49 in 10.0 mi South 18.4 mph 26.5 mph N/A   Mostly Cloudy
11:16 AM 42.8 °F 34.0 °F 41.0 °F 93% 29.49 in 10.0 mi SSW 20.7 mph 27.6 mph N/A   Mostly Cloudy
11:36 AM 42.8 °F 32.9 °F 42.8 °F 100% 29.49 in 10.0 mi South 26.5 mph 32.2 mph N/A   Mostly Cloudy
11:56 AM 42.8 °F 33.5 °F 42.8 °F 100% 29.50 in 10.0 mi South 23.0 mph 29.9 mph N/A   Mostly Cloudy
12:16 PM 42.8 °F 32.7 °F 42.8 °F 100% 29.50 in 10.0 mi South 27.6 mph 34.5 mph N/A   Mostly Cloudy
12:36 PM 42.8 °F 34.5 °F 42.8 °F 100% 29.51 in 10.0 mi SSW 18.4 mph 33.4 mph N/A   Mostly Cloudy
12:56 PM 44.6 °F 37.8 °F 42.8 °F 93% 29.50 in 10.0 mi South 15.0 mph 21.9 mph N/A   Mostly Cloudy
1:16 PM 44.6 °F 35.9 °F 42.8 °F 93% 29.50 in 10.0 mi South 23.0 mph 31.1 mph N/A   Mostly Cloudy
1:36 PM 44.6 °F 36.4 °F 42.8 °F 93% 29.50 in 10.0 mi South 20.7 mph 29.9 mph N/A   Mostly Cloudy
1:56 PM 44.6 °F 34.7 °F 42.8 °F 93% 29.49 in 6.0 mi SSW 29.9 mph 36.8 mph N/A   Mostly Cloudy
2:16 PM 44.6 °F 36.4 °F 42.8 °F 93% 29.49 in 4.0 mi South 20.7 mph - N/A   Mostly Cloudy
2:36 PM 44.6 °F 36.4 °F 42.8 °F 93% 29.49 in 5.0 mi South 20.7 mph 27.6 mph N/A   Mostly Cloudy
2:56 PM 44.6 °F 35.3 °F 42.8 °F 93% 29.48 in 6.0 mi South 26.5 mph 34.5 mph N/A   Mostly Cloudy
3:16 PM 44.6 °F 35.3 °F 42.8 °F 93% 29.48 in 6.0 mi South 26.5 mph 31.1 mph N/A   Mostly Cloudy
3:36 PM 42.8 °F 33.8 °F 41.0 °F 93% 29.48 in 4.0 mi South 21.9 mph 26.5 mph N/A   Overcast
3:56 PM 44.6 °F 35.5 °F 42.8 °F 93% 29.48 in 10.0 mi South 25.3 mph 32.2 mph N/A   Mostly Cloudy
4:16 PM 44.6 °F 35.7 °F 42.8 °F 93% 29.48 in 10.0 mi South 24.2 mph 33.4 mph N/A   Mostly Cloudy
4:36 PM 44.6 °F 36.4 °F 42.8 °F 93% 29.47 in 10.0 mi South 20.7 mph 27.6 mph N/A   Mostly Cloudy
4:56 PM 42.8 °F 35.4 °F 41.0 °F 93% 29.48 in 3.0 mi South 15.0 mph 28.8 mph N/A   Overcast
5:16 PM 42.8 °F 35.1 °F 42.8 °F 100% 29.48 in 3.0 mi South 16.1 mph 19.6 mph N/A   Overcast
5:36 PM 42.8 °F 34.5 °F 41.0 °F 93% 29.49 in 3.0 mi South 18.4 mph - N/A   Overcast
5:56 PM 42.8 °F 34.3 °F 42.8 °F 100% 29.50 in 8.0 mi South 19.6 mph - N/A   Overcast
6:16 PM 42.8 °F 34.0 °F 42.8 °F 100% 29.50 in 8.0 mi South 20.7 mph 27.6 mph N/A   Overcast
6:36 PM 42.8 °F 34.0 °F 42.8 °F 100% 29.50 in 8.0 mi South 20.7 mph 24.2 mph N/A   Overcast
6:56 PM 42.8 °F 35.4 °F 42.8 °F 100% 29.49 in 4.0 mi South 15.0 mph 18.4 mph N/A   Overcast
7:16 PM 42.8 °F 35.1 °F 42.8 °F 100% 29.49 in 6.0 mi South 16.1 mph - N/A   Overcast
7:36 PM 42.8 °F 35.8 °F 42.8 °F 100% 29.49 in 6.0 mi South 13.8 mph 19.6 mph N/A   Overcast
7:56 PM 42.8 °F 35.8 °F 42.8 °F 100% 29.49 in 4.0 mi South 13.8 mph - N/A   Overcast
8:16 PM 42.8 °F 36.2 °F 41.0 °F 93% 29.49 in 9.0 mi South 12.7 mph - N/A   Overcast
8:36 PM 42.8 °F 35.4 °F 41.0 °F 93% 29.49 in 9.0 mi South 15.0 mph 20.7 mph N/A   Overcast
8:56 PM 42.8 °F 36.2 °F 41.0 °F 93% 29.49 in 3.0 mi SSE 12.7 mph - N/A   Overcast
9:16 PM 42.8 °F 36.6 °F 41.0 °F 93% 29.49 in 4.0 mi SSE 11.5 mph - N/A   Overcast
9:36 PM 42.8 °F 36.2 °F 41.0 °F 93% 29.49 in 8.0 mi South 12.7 mph - N/A   Overcast
9:56 PM 42.8 °F 35.8 °F 42.8 °F 100% 29.49 in 7.0 mi South 13.8 mph - N/A   Overcast
10:16 PM 42.8 °F 35.4 °F 42.8 °F 100% 29.49 in 5.0 mi South 15.0 mph - N/A   Overcast
10:36 PM 42.8 °F 35.8 °F 42.8 °F 100% 29.49 in 5.0 mi South 13.8 mph - N/A   Overcast
10:56 PM 42.8 °F 35.8 °F 42.8 °F 100% 29.49 in 7.0 mi South 13.8 mph - N/A   Overcast
11:16 PM 42.8 °F 35.8 °F 42.8 °F 100% 29.49 in 8.0 mi South 13.8 mph - N/A   Overcast
11:36 PM 42.8 °F 35.4 °F 42.8 °F 100% 29.49 in 10.0 mi South 15.0 mph - N/A   Overcast
11:56 PM 42.8 °F 34.8 °F 42.8 °F 100% 29.49 in 10.0 mi South 17.3 mph - N/A   Overcast